Location: �chemir�
(47.5500°N, 0.1667°W)
Time: 20:42:17
(UTC+02:00)

ISS - Visible Passes

Search period start: 22 July 2018 00:00
Search period end: 01 August 2018 00:00
Orbit: 402 x 408 km, 51.6° (Epoch: 22 July)

Date Brightness Start Highest point End Pass type
(mag) Time Alt. Az. Time Alt. Az. Time Alt. Az.
22 Jul -2.9 00:29:22 10° W 00:32:35 51° NNW 00:35:49 10° ENE visible
22 Jul -2.4 02:06:20 10° WNW 02:09:28 40° N 02:12:36 10° ENE visible
22 Jul -4.0 03:42:53 10° WNW 03:46:11 87° SSW 03:49:29 10° ESE visible
22 Jul -2.3 05:20:04 10° W 05:22:17 17° SW 05:24:30 10° S visible
22 Jul -3.5 23:37:08 10° WSW 23:40:25 69° NNW 23:43:41 10° ENE visible
23 Jul -2.3 01:14:06 10° WNW 01:17:13 38° N 01:20:20 10° ENE visible
23 Jul -3.1 02:50:45 10° WNW 02:53:21 48° NW 02:53:21 48° NW visible
23 Jul -3.9 22:45:00 10° WSW 22:48:16 82° SSE 22:51:34 10° ENE visible
24 Jul -2.4 00:21:50 10° WNW 00:24:58 40° N 00:28:07 10° ENE visible
24 Jul -2.9 01:58:37 10° WNW 02:01:45 49° N 02:01:45 49° N visible
24 Jul -2.7 23:29:32 10° W 23:32:43 47° NNW 23:35:55 10° ENE visible
25 Jul -2.6 01:06:27 10° WNW 01:09:36 41° N 01:10:47 29° ENE visible
25 Jul -1.2 02:42:59 10° WNW 02:43:24 13° WNW 02:43:24 13° WNW visible
25 Jul -3.2 22:37:14 10° W 22:40:29 61° NNW 22:43:45 10° ENE visible
26 Jul -2.4 00:14:13 10° WNW 00:17:19 38° N 00:20:00 13° ENE visible
26 Jul -2.2 01:50:49 10° WNW 01:52:38 30° WNW 01:52:38 30° WNW visible
26 Jul -2.4 23:21:55 10° WNW 23:25:01 39° N 23:28:09 10° ENE visible
27 Jul -3.2 00:58:39 10° WNW 01:01:54 54° NNE 01:01:57 54° NNE visible
27 Jul -2.6 22:29:35 10° W 22:32:44 44° N 22:35:55 10° ENE visible
28 Jul -2.7 00:06:27 10° WNW 00:09:37 43° N 00:11:20 22° ENE visible
28 Jul -1.5 01:42:58 10° WNW 01:43:57 18° WNW 01:43:57 18° WNW visible
28 Jul -2.5 23:14:12 10° WNW 23:17:18 39° N 23:20:26 10° ENE visible
29 Jul -3.2 00:50:45 10° WNW 00:53:21 52° WNW 00:53:21 52° WNW visible
29 Jul -2.4 22:21:53 10° WNW 22:24:58 38° N 22:28:05 10° ENE visible
29 Jul -3.4 23:58:33 10° WNW 00:01:49 60° NNE 00:02:47 39° E visible
30 Jul -0.9 01:35:13 10° W 01:35:25 11° W 01:35:25 11° W visible
30 Jul -2.9 23:06:20 10° WNW 23:09:31 46° NNE 23:12:14 13° E visible
31 Jul -2.4 00:42:52 10° WNW 00:44:52 32° W 00:44:52 32° W visible
31 Jul -2.6 22:14:03 10° WNW 22:17:11 40° N 22:20:18 10° ENE visible
31 Jul -4.0 23:50:35 10° WNW 23:53:52 84° SSW 23:54:20 63° SE visible
